,,Stat5,,Stat1,,Stat2,,Stat3,,Stat4,,Wind1,,Wind1,
time,status,PA1M_AVG,status,PR1M_SUM,status,RH1M_AVG,status,SR1M_AVG,status,TA1M_AVG,status,W1dAve1m,status,W1sAve1m,
2001-04-18, 00:00:00,VALID,917.909,VALID,0,VALID,99.2055,VALID,-0.0679233,VALID,18.7853,VALID,175,VALID,0.637747,
2001-04-18, 00:01:00,VALID,917.909,VALID,0,VALID,99.2042,VALID,-0.0849042,VALID,18.7756,VALID,179,VALID,0.654848,
2001-04-18, 00:02:00,VALID,917.879,VALID,0,VALID,99.2042,VALID,-0.0509425,VALID,18.7532,VALID,171,VALID,0.405248,
2001-04-18, 00:03:00,VALID,917.853,VALID,0,VALID,99.2004,VALID,-0.0169808,VALID,18.7172,VALID,169,VALID,0.166735,
2001-04-18, 00:04:00,VALID,917.837,VALID,0,VALID,99.2157,VALID,-0.0509425,VALID,18.6946,VALID,176,VALID,0.62454,
2001-04-18, 00:05:00,VALID,917.819,VALID,0,VALID,99.264,VALID,-0.0339617,VALID,18.7341,VALID,194,VALID,0.575863,
2001-04-18, 00:06:00,VALID,917.792,VALID,0,VALID,99.2805,VALID,-0.0169808,VALID,18.7267,VALID,197,VALID,0.457559,
2001-04-18, 00:07:00,VALID,917.778,VALID,0,VALID,99.2729,VALID,-0.0169808,VALID,18.7364,VALID,197,VALID,0.596834,
2001-04-18, 00:08:00,VALID,917.781,VALID,0,VALID,99.2767,VALID,0,VALID,18.7264,VALID,199,VALID,0.80957,
2001-04-18, 00:09:00,VALID,917.776,VALID,0,VALID,99.2793,VALID,-0.0509425,VALID,18.7398,VALID,198,VALID,0.890831,
2001-04-18, 00:10:00,VALID,917.756,VALID,0,VALID,99.3009,VALID,-0.0679233,VALID,18.7336,VALID,196,VALID,1.02945,
2001-04-18, 00:11:00,VALID,917.743,VALID,0,VALID,99.2971,VALID,-0.0339617,VALID,18.7366,VALID,190,VALID,0.899877,
2001-04-18, 00:12:00,VALID,917.722,VALID,0,VALID,99.2831,VALID,-0.0509425,VALID,18.7274,VALID,187,VALID,1.00411,
2001-04-18, 00:13:00,VALID,917.702,VALID,0,VALID,99.2742,VALID,-0.0679233,VALID,18.7078,VALID,192,VALID,0.916295,
2001-04-18, 00:14:00,VALID,917.675,VALID,0,VALID,99.2793,VALID,-0.0339617,VALID,18.6884,VALID,190,VALID,0.924753,
2001-04-18, 00:15:00,VALID,917.68,VALID,0,VALID,99.2945,VALID,-0.0339617,VALID,18.6849,VALID,200,VALID,0.790963,
2001-04-18, 00:16:00,VALID,917.666,VALID,0,VALID,99.3199,VALID,-0.0169808,VALID,18.6911,VALID,193,VALID,0.539063,
2001-04-18, 00:17:00,VALID,917.647,VALID,0,VALID,99.3352,VALID,-0.0169808,VALID,18.7108,VALID,206,VALID,0.253005,
2001-04-18, 00:18:00,VALID,917.638,VALID,0,VALID,99.3428,VALID,-0.0169808,VALID,18.7006,VALID,190,VALID,0.378571,
2001-04-18, 00:19:00,VALID,917.613,VALID,0,VALID,99.3327,VALID,-0.0339617,VALID,18.7142,VALID,201,VALID,0.511914,
2001-04-18, 00:20:00,VALID,917.577,VALID,0,VALID,99.353,VALID,-0.0509425,VALID,18.7269,VALID,194,VALID,1.02298,
2001-04-18, 00:21:00,VALID,917.558,VALID,0,VALID,99.367,VALID,-0.0679233,VALID,18.7527,VALID,185,VALID,1.07052,
2001-04-18, 00:22:00,VALID,917.559,VALID,0,VALID,99.3708,VALID,-0.0339617,VALID,18.7783,VALID,184,VALID,0.938189,
2001-04-18, 00:23:00,VALID,917.543,VALID,0,VALID,99.3683,VALID,-0.0169808,VALID,18.7947,VALID,182,VALID,0.936022,
2001-04-18, 00:24:00,VALID,917.543,VALID,0,VALID,99.3695,VALID,-0.0339617,VALID,18.7972,VALID,185,VALID,0.946777,
2001-04-18, 00:25:00,VALID,917.532,VALID,0,VALID,99.3721,VALID,0,VALID,18.8136,VALID,192,VALID,0.813502,
2001-04-18, 00:26:00,VALID,917.522,VALID,0,VALID,99.3734,VALID,-0.0339617,VALID,18.8201,VALID,187,VALID,0.823214,
2001-04-18, 00:27:00,VALID,917.509,VALID,0,VALID,99.353,VALID,-0.0169808,VALID,18.8169,VALID,191,VALID,0.543074,
2001-04-18, 00:28:00,VALID,917.501,VALID,0,VALID,99.339,VALID,-0.0339617,VALID,18.8042,VALID,197,VALID,0.59375,
2001-04-18, 00:29:00,VALID,917.482,VALID,0,VALID,99.3466,VALID,0,VALID,18.7977,VALID,214,VALID,0.588471,
2001-04-18, 00:30:00,VALID,917.473,VALID,0,VALID,99.3606,VALID,-0.0169808,VALID,18.8134,VALID,219,VALID,0.717105,
2001-04-18, 00:31:00,VALID,917.456,VALID,0,VALID,99.3479,VALID,-0.0169808,VALID,18.8266,VALID,217,VALID,0.88199,
2001-04-18, 00:32:00,VALID,917.436,VALID,0,VALID,99.3517,VALID,0,VALID,18.8201,VALID,221,VALID,0.69442,
2001-04-18, 00:33:00,VALID,917.419,VALID,0,VALID,99.3314,VALID,-0.0339617,VALID,18.8201,VALID,222,VALID,0.23522,
2001-04-18, 00:34:00,VALID,917.398,VALID,0,VALID,99.2882,VALID,-0.0169808,VALID,18.7719,VALID,222,VALID,0.00183824,
2001-04-18, 00:35:00,VALID,917.393,VALID,0,VALID,99.278,VALID,-0.0169808,VALID,18.7366,VALID,219,VALID,0.0293497,
2001-04-18, 00:36:00,VALID,917.38,VALID,0,VALID,99.2627,VALID,-0.0169808,VALID,18.6711,VALID,218,VALID,0,
2001-04-18, 00:37:00,VALID,917.377,VALID,0,VALID,99.2793,VALID,-0.0169808,VALID,18.6909,VALID,218,VALID,0,
2001-04-18, 00:38:00,VALID,917.362,VALID,0,VALID,99.2869,VALID,0,VALID,18.6814,VALID,236,VALID,0.0116071,
2001-04-18, 00:39:00,VALID,917.345,VALID,0,VALID,99.311,VALID,-0.0169808,VALID,18.7105,VALID,306,VALID,0.48712,
2001-04-18, 00:40:00,VALID,917.328,VALID,0,VALID,99.3403,VALID,-0.0339617,VALID,18.7716,VALID,319,VALID,0.41682,
2001-04-18, 00:41:00,VALID,917.297,VALID,0,VALID,99.3594,VALID,-0.0169808,VALID,18.8139,VALID,295,VALID,0.0777027,
2001-04-18, 00:42:00,VALID,917.281,VALID,0,VALID,99.3377,VALID,-0.0169808,VALID,18.8136,VALID,264,VALID,0.426398,
2001-04-18, 00:43:00,VALID,917.262,VALID,0,VALID,99.3009,VALID,0,VALID,18.782,VALID,237,VALID,0.729235,
2001-04-18, 00:44:00,VALID,917.245,VALID,0,VALID,99.2894,VALID,-0.0169808,VALID,18.7398,VALID,230,VALID,0.336607,
2001-04-18, 00:45:00,VALID,917.219,VALID,0,VALID,99.2793,VALID,-0.0339617,VALID,18.7202,VALID,224,VALID,0.69109,
2001-04-18, 00:46:00,VALID,917.21,VALID,0,VALID,99.2653,VALID,-0.0169808,VALID,18.7108,VALID,231,VALID,0.714384,
2001-04-18, 00:47:00,VALID,917.202,VALID,0,VALID,99.2932,VALID,0,VALID,18.6944,VALID,232,VALID,0.770693,
2001-04-18, 00:48:00,VALID,917.204,VALID,0,VALID,99.3047,VALID,-0.0169808,VALID,18.6907,VALID,221,VALID,0.803711,
2001-04-18, 00:49:00,VALID,917.195,VALID,0,VALID,99.3314,VALID,-0.0169808,VALID,18.7234,VALID,222,VALID,0.884415,
2001-04-18, 00:50:00,VALID,917.183,VALID,0,VALID,99.3441,VALID,-0.0169808,VALID,18.749,VALID,217,VALID,0.778348,
2001-04-18, 00:51:00,VALID,917.171,VALID,0,VALID,99.3734,VALID,0,VALID,18.7846,VALID,208,VALID,0.568201,
2001-04-18, 00:52:00,VALID,917.157,VALID,0,VALID,99.3695,VALID,-0.0509425,VALID,18.7977,VALID,173,VALID,0.572151,
2001-04-18, 00:53:00,VALID,917.148,VALID,0,VALID,99.3517,VALID,0,VALID,18.8139,VALID,170,VALID,0.75739,
2001-04-18, 00:54:00,VALID,917.131,VALID,0,VALID,99.3288,VALID,-0.0679233,VALID,18.7913,VALID,163,VALID,0.769326,
2001-04-18, 00:55:00,VALID,917.119,VALID,0,VALID,99.3352,VALID,-0.0679233,VALID,18.7915,VALID,155,VALID,0.960732,
2001-04-18, 00:56:00,VALID,917.105,VALID,0,VALID,99.3288,VALID,-0.0679233,VALID,18.8049,VALID,170,VALID,0.785937,
2001-04-18, 00:57:00,VALID,917.081,VALID,0,VALID,99.3187,VALID,0,VALID,18.7977,VALID,179,VALID,0.7481,
2001-04-18, 00:58:00,VALID,917.063,VALID,0,VALID,99.3123,VALID,-0.0169808,VALID,18.794,VALID,185,VALID,0.686581,
2001-04-18, 00:59:00,VALID,917.038,VALID,0,VALID,99.311,VALID,-0.0339617,VALID,18.7848,VALID,185,VALID,0.796875,
2001-04-18, 01:00:00,VALID,917.011,VALID,0,VALID,99.3123,VALID,-0.0339617,VALID,18.7913,VALID,188,VALID,0.919678,
2001-04-18, 01:01:00,VALID,916.971,VALID,0,VALID,99.2907,VALID,-0.0339617,VALID,18.785,VALID,196,VALID,0.767428,
2001-04-18, 01:02:00,VALID,916.942,VALID,0,VALID,99.2487,VALID,-0.0509425,VALID,18.7624,VALID,202,VALID,0.997545,
2001-04-18, 01:03:00,VALID,916.915,VALID,0,VALID,99.25,VALID,-0.0509425,VALID,18.7428,VALID,199,VALID,1.07052,
2001-04-18, 01:04:00,VALID,916.891,VALID,0,VALID,99.2513,VALID,-0.0679233,VALID,18.7426,VALID,201,VALID,1.08203,
2001-04-18, 01:05:00,VALID,916.866,VALID,0,VALID,99.2424,VALID,-0.0509425,VALID,18.7553,VALID,203,VALID,0.915541,
2001-04-18, 01:06:00,VALID,916.846,VALID,0,VALID,99.2576,VALID,-0.0339617,VALID,18.7654,VALID,198,VALID,1.0037,
2001-04-18, 01:07:00,VALID,916.839,VALID,0,VALID,99.264,VALID,-0.0169808,VALID,18.7878,VALID,198,VALID,1.1067,
2001-04-18, 01:08:00,VALID,916.832,VALID,0,VALID,99.2411,VALID,0,VALID,18.8002,VALID,197,VALID,0.573884,
2001-04-18, 01:09:00,VALID,916.838,VALID,0,VALID,99.2462,VALID,-0.0509425,VALID,18.8007,VALID,211,VALID,0.577703,
2001-04-18, 01:10:00,VALID,916.839,VALID,0,VALID,99.2564,VALID,0,VALID,18.8136,VALID,210,VALID,0.80193,
2001-04-18, 01:11:00,VALID,916.846,VALID,0,VALID,99.236,VALID,-0.0339617,VALID,18.83,VALID,218,VALID,1.01647,
2001-04-18, 01:12:00,VALID,916.849,VALID,0,VALID,99.1902,VALID,0,VALID,18.791,VALID,221,VALID,0.886475,
2001-04-18, 01:13:00,VALID,916.838,VALID,0,VALID,99.1788,VALID,0,VALID,18.7657,VALID,213,VALID,0.93149,
2001-04-18, 01:14:00,VALID,916.825,VALID,0,VALID,99.1864,VALID,-0.0339617,VALID,18.7564,VALID,215,VALID,0.844866,
2001-04-18, 01:15:00,VALID,916.804,VALID,0,VALID,99.1724,VALID,-0.0169808,VALID,18.7269,VALID,216,VALID,0.914696,
2001-04-18, 01:16:00,VALID,916.794,VALID,0,VALID,99.1648,VALID,-0.0169808,VALID,18.7142,VALID,213,VALID,0.870634,
2001-04-18, 01:17:00,VALID,916.772,VALID,0,VALID,99.1699,VALID,-0.0339617,VALID,18.6455,VALID,216,VALID,0.797081,
2001-04-18, 01:18:00,VALID,916.772,VALID,0,VALID,99.1775,VALID,-0.0169808,VALID,18.6323,VALID,218,VALID,1.10259,
2001-04-18, 01:19:00,VALID,916.767,VALID,0,VALID,99.2297,VALID,-0.0509425,VALID,18.6367,VALID,223,VALID,1.24507,
2001-04-18, 01:20:00,VALID,916.789,VALID,0,VALID,99.2449,VALID,-0.0169808,VALID,18.6492,VALID,217,VALID,0.912946,
2001-04-18, 01:21:00,VALID,916.777,VALID,0,VALID,99.2538,VALID,-0.0339617,VALID,18.6295,VALID,218,VALID,0.953125,
2001-04-18, 01:22:00,VALID,916.79,VALID,0,VALID,99.278,VALID,-0.0339617,VALID,18.6429,VALID,214,VALID,0.944164,
2001-04-18, 01:23:00,VALID,916.792,VALID,0,VALID,99.3123,VALID,-0.0509425,VALID,18.6462,VALID,207,VALID,0.641681,
2001-04-18, 01:24:00,VALID,916.787,VALID,0,VALID,99.3365,VALID,-0.0509425,VALID,18.6457,VALID,205,VALID,0.427734,
2001-04-18, 01:25:00,VALID,916.795,VALID,0,VALID,99.3556,VALID,-0.0509425,VALID,18.6685,VALID,208,VALID,0.310296,
2001-04-18, 01:26:00,VALID,916.782,VALID,0,VALID,99.4077,VALID,-0.0849042,VALID,18.7239,VALID,197,VALID,0.802232,
2001-04-18, 01:27:00,VALID,916.778,VALID,0,VALID,99.4128,VALID,-0.0509425,VALID,18.7885,VALID,195,VALID,0.843117,
2001-04-18, 01:28:00,VALID,916.768,VALID,0,VALID,99.3835,VALID,-0.101885,VALID,18.8183,VALID,193,VALID,0.798713,
2001-04-18, 01:29:00,VALID,916.764,VALID,0,VALID,99.3861,VALID,-0.101885,VALID,18.8208,VALID,189,VALID,0.78484,
2001-04-18, 01:30:00,VALID,916.752,VALID,0,VALID,99.3823,VALID,-0.0849042,VALID,18.8307,VALID,190,VALID,0.570929,
2001-04-18, 01:31:00,VALID,916.742,VALID,0,VALID,99.3543,VALID,-0.0679233,VALID,18.8238,VALID,190,VALID,0.524054,
2001-04-18, 01:32:00,VALID,916.751,VALID,0,VALID,99.3695,VALID,-0.0679233,VALID,18.8238,VALID,191,VALID,0.720312,
2001-04-18, 01:33:00,VALID,916.753,VALID,0,VALID,99.367,VALID,-0.0679233,VALID,18.827,VALID,195,VALID,0.643159,
2001-04-18, 01:34:00,VALID,916.761,VALID,0,VALID,99.3568,VALID,-0.0509425,VALID,18.8333,VALID,201,VALID,0.288603,
2001-04-18, 01:35:00,VALID,916.771,VALID,0,VALID,99.3543,VALID,-0.0509425,VALID,18.8365,VALID,203,VALID,0.305743,
2001-04-18, 01:36:00,VALID,916.775,VALID,0,VALID,99.3479,VALID,-0.0509425,VALID,18.8233,VALID,203,VALID,0.285156,
2001-04-18, 01:37:00,VALID,916.766,VALID,0,VALID,99.3225,VALID,-0.0339617,VALID,18.8012,VALID,197,VALID,0.354367,
2001-04-18, 01:38:00,VALID,916.766,VALID,0,VALID,99.3454,VALID,0.0339617,VALID,18.803,VALID,208,VALID,0.517187,
2001-04-18, 01:39:00,VALID,916.761,VALID,0,VALID,99.3136,VALID,0.0679233,VALID,18.8127,VALID,227,VALID,0.490287,
2001-04-18, 01:40:00,VALID,916.75,VALID,0,VALID,99.3085,VALID,0.0509425,VALID,18.7831,VALID,229,VALID,0.791131,
2001-04-18, 01:41:00,VALID,916.724,VALID,0,VALID,99.3174,VALID,0.0339617,VALID,18.8025,VALID,224,VALID,0.851985,
2001-04-18, 01:42:00,VALID,916.719,VALID,0,VALID,99.2958,VALID,0.0679233,VALID,18.8127,VALID,233,VALID,0.869655,
2001-04-18, 01:43:00,VALID,916.71,VALID,0,VALID,99.2831,VALID,0.0339617,VALID,18.7963,VALID,227,VALID,0.812706,
2001-04-18, 01:44:00,VALID,916.7,VALID,0,VALID,99.2793,VALID,0.0169808,VALID,18.7737,VALID,226,VALID,0.986607,
2001-04-18, 01:45:00,VALID,916.697,VALID,0,VALID,99.2882,VALID,0.0339617,VALID,18.7769,VALID,229,VALID,0.9356,
2001-04-18, 01:46:00,VALID,916.695,VALID,0,VALID,99.292,VALID,0.0339617,VALID,18.7933,VALID,228,VALID,0.797794,
2001-04-18, 01:47:00,VALID,916.685,VALID,0,VALID,99.2945,VALID,0.0339617,VALID,18.7901,VALID,230,VALID,0.559755,
2001-04-18, 01:48:00,VALID,916.683,VALID,0,VALID,99.2704,VALID,0.0679233,VALID,18.7799,VALID,221,VALID,0.548096,
2001-04-18, 01:49:00,VALID,916.661,VALID,0,VALID,99.2716,VALID,0.0509425,VALID,18.7831,VALID,214,VALID,0.654848,
2001-04-18, 01:50:00,VALID,916.666,VALID,0,VALID,99.2691,VALID,0.0509425,VALID,18.7772,VALID,195,VALID,0.652232,
2001-04-18, 01:51:00,VALID,916.626,VALID,0,VALID,99.2729,VALID,0.0849042,VALID,18.7732,VALID,177,VALID,0.542863,
2001-04-18, 01:52:00,VALID,916.614,VALID,0,VALID,99.2729,VALID,0.0339617,VALID,18.7968,VALID,162,VALID,0.70864,
2001-04-18, 01:53:00,VALID,916.595,VALID,0,VALID,99.2869,VALID,-0.0339617,VALID,18.7943,VALID,162,VALID,0.812922,
2001-04-18, 01:54:00,VALID,916.58,VALID,0,VALID,99.2958,VALID,-0.0339617,VALID,18.8238,VALID,158,VALID,0.752262,
2001-04-18, 01:55:00,VALID,916.566,VALID,0,VALID,99.2907,VALID,-0.0509425,VALID,18.8206,VALID,171,VALID,0.708059,
2001-04-18, 01:56:00,VALID,916.557,VALID,0,VALID,99.311,VALID,-0.0339617,VALID,18.8494,VALID,177,VALID,0.564509,
2001-04-18, 01:57:00,VALID,916.558,VALID,0,VALID,99.3047,VALID,-0.0509425,VALID,18.8685,VALID,168,VALID,0.64337,
2001-04-18, 01:58:00,VALID,916.55,VALID,0,VALID,99.278,VALID,-0.101885,VALID,18.8752,VALID,180,VALID,0.621783,
2001-04-18, 01:59:00,VALID,916.566,VALID,0,VALID,99.2233,VALID,-0.0509425,VALID,18.8822,VALID,169,VALID,0.643581,
2001-04-18, 02:00:00,VALID,916.565,VALID,0,VALID,99.1826,VALID,-0.0339617,VALID,18.8658,VALID,168,VALID,0.509033,
2001-04-18, 02:01:00,VALID,916.572,VALID,0,VALID,99.1559,VALID,-0.0509425,VALID,18.8626,VALID,168,VALID,0.433494,
2001-04-18, 02:02:00,VALID,916.583,VALID,0,VALID,99.105,VALID,-0.0339617,VALID,18.8524,VALID,168,VALID,0.447768,
2001-04-18, 02:03:00,VALID,916.587,VALID,0,VALID,99.0847,VALID,-0.0679233,VALID,18.8399,VALID,172,VALID,0.269426,
2001-04-18, 02:04:00,VALID,916.578,VALID,0,VALID,99.1012,VALID,-0.0339617,VALID,18.8266,VALID,211,VALID,0.335708,
2001-04-18, 02:05:00,VALID,916.592,VALID,0,VALID,99.1114,VALID,-0.0509425,VALID,18.8492,VALID,213,VALID,0.0728463,
2001-04-18, 02:06:00,VALID,916.589,VALID,0,VALID,99.0961,VALID,-0.0169808,VALID,18.8425,VALID,213,VALID,0,
2001-04-18, 02:07:00,VALID,916.59,VALID,0,VALID,99.0402,VALID,-0.0169808,VALID,18.8295,VALID,212,VALID,0,
2001-04-18, 02:08:00,VALID,916.57,VALID,0,VALID,99.002,VALID,-0.118866,VALID,18.782,VALID,183,VALID,0,
2001-04-18, 02:09:00,VALID,916.555,VALID,0,VALID,98.9893,VALID,-0.101885,VALID,18.7502,VALID,157,VALID,0,
2001-04-18, 02:10:00,VALID,916.537,VALID,0,VALID,99.0097,VALID,-0.101885,VALID,18.7336,VALID,170,VALID,0,
2001-04-18, 02:11:00,VALID,916.504,VALID,0,VALID,99.0529,VALID,-0.118866,VALID,18.7532,VALID,175,VALID,0,
2001-04-18, 02:12:00,VALID,916.475,VALID,0,VALID,99.0822,VALID,-0.101885,VALID,18.7694,VALID,175,VALID,0,
2001-04-18, 02:13:00,VALID,916.468,VALID,0,VALID,99.0872,VALID,-0.0849042,VALID,18.7562,VALID,175,VALID,0,
2001-04-18, 02:14:00,VALID,916.444,VALID,0,VALID,99.1165,VALID,-0.135847,VALID,18.7892,VALID,175,VALID,0,
2001-04-18, 02:15:00,VALID,916.436,VALID,0,VALID,99.1203,VALID,-0.118866,VALID,18.8051,VALID,179,VALID,0,
2001-04-18, 02:16:00,VALID,916.421,VALID,0,VALID,99.1012,VALID,-0.101885,VALID,18.8081,VALID,181,VALID,0,
2001-04-18, 02:17:00,VALID,916.413,VALID,0,VALID,99.1241,VALID,-0.118866,VALID,18.831,VALID,181,VALID,0,
2001-04-18, 02:18:00,VALID,916.407,VALID,0,VALID,99.1216,VALID,-0.101885,VALID,18.8511,VALID,183,VALID,0,
2001-04-18, 02:19:00,VALID,916.388,VALID,0,VALID,99.1152,VALID,-0.101885,VALID,18.8533,VALID,187,VALID,0,
2001-04-18, 02:20:00,VALID,916.381,VALID,0,VALID,99.1063,VALID,-0.101885,VALID,18.8732,VALID,186,VALID,0,
2001-04-18, 02:21:00,VALID,916.37,VALID,0,VALID,99.0745,VALID,-0.118866,VALID,18.8797,VALID,186,VALID,0,
2001-04-18, 02:22:00,VALID,916.369,VALID,0,VALID,99.0593,VALID,-0.101885,VALID,18.8827,VALID,188,VALID,0,
2001-04-18, 02:23:00,VALID,916.359,VALID,0,VALID,99.0389,VALID,-0.0339617,VALID,18.9011,VALID,189,VALID,0,
2001-04-18, 02:24:00,VALID,916.357,VALID,0,VALID,98.9741,VALID,-0.0169808,VALID,18.8877,VALID,197,VALID,0,
2001-04-18, 02:25:00,VALID,916.365,VALID,0,VALID,98.9207,VALID,0,VALID,18.8748,VALID,205,VALID,0,
2001-04-18, 02:26:00,VALID,916.361,VALID,0,VALID,98.8571,VALID,0,VALID,18.8388,VALID,199,VALID,0,
2001-04-18, 02:27:00,VALID,916.36,VALID,0,VALID,98.8444,VALID,0.0169808,VALID,18.8136,VALID,194,VALID,0,
2001-04-18, 02:28:00,VALID,916.36,VALID,0,VALID,98.8202,VALID,0.0169808,VALID,18.7783,VALID,188,VALID,0,
2001-04-18, 02:29:00,VALID,916.364,VALID,0,VALID,98.8393,VALID,-0.0339617,VALID,18.749,VALID,185,VALID,0,
2001-04-18, 02:30:00,VALID,916.353,VALID,0,VALID,98.8787,VALID,-0.0339617,VALID,18.7396,VALID,184,VALID,0,
2001-04-18, 02:31:00,VALID,916.356,VALID,0,VALID,98.8774,VALID,0,VALID,18.7068,VALID,217,VALID,0.264186,
2001-04-18, 02:32:00,VALID,916.358,VALID,0,VALID,98.9054,VALID,0,VALID,18.6939,VALID,219,VALID,0.63058,
2001-04-18, 02:33:00,VALID,916.353,VALID,0,VALID,98.9436,VALID,0,VALID,18.6777,VALID,200,VALID,0.379856,
2001-04-18, 02:34:00,VALID,916.347,VALID,0,VALID,98.9372,VALID,-0.0169808,VALID,18.6621,VALID,205,VALID,0.630285,
2001-04-18, 02:35:00,VALID,916.346,VALID,0,VALID,98.927,VALID,-0.0169808,VALID,18.6358,VALID,198,VALID,0.726774,
2001-04-18, 02:36:00,VALID,916.339,VALID,0,VALID,98.9296,VALID,0,VALID,18.6102,VALID,206,VALID,0.829102,
2001-04-18, 02:37:00,VALID,916.334,VALID,0,VALID,98.9423,VALID,0,VALID,18.5811,VALID,222,VALID,0.310697,
2001-04-18, 02:38:00,VALID,916.331,VALID,0,VALID,98.9652,VALID,-0.0169808,VALID,18.5721,VALID,199,VALID,0.689955,
2001-04-18, 02:39:00,VALID,916.311,VALID,0,VALID,99.016,VALID,0,VALID,18.552,VALID,182,VALID,0.64886,
2001-04-18, 02:40:00,VALID,916.287,VALID,0,VALID,99.0516,VALID,0,VALID,18.5421,VALID,179,VALID,0.285846,
2001-04-18, 02:41:00,VALID,916.279,VALID,0,VALID,99.0186,VALID,-0.0169808,VALID,18.51,VALID,176,VALID,0.324324,
2001-04-18, 02:42:00,VALID,916.263,VALID,0,VALID,99.0555,VALID,0,VALID,18.4941,VALID,170,VALID,0.669202,
2001-04-18, 02:43:00,VALID,916.235,VALID,0,VALID,99.1445,VALID,-0.0169808,VALID,18.5167,VALID,169,VALID,0.90111,
2001-04-18, 02:44:00,VALID,916.228,VALID,0,VALID,99.1686,VALID,-0.0169808,VALID,18.5363,VALID,165,VALID,0.641741,
2001-04-18, 02:45:00,VALID,916.203,VALID,0,VALID,99.1635,VALID,-0.0509425,VALID,18.5329,VALID,163,VALID,0.728885,
2001-04-18, 02:46:00,VALID,916.176,VALID,0,VALID,99.1813,VALID,-0.0169808,VALID,18.549,VALID,158,VALID,0.754596,
2001-04-18, 02:47:00,VALID,916.162,VALID,0,VALID,99.1775,VALID,-0.0339617,VALID,18.5495,VALID,170,VALID,0.536529,
2001-04-18, 02:48:00,VALID,916.131,VALID,0,VALID,99.1852,VALID,-0.0169808,VALID,18.5523,VALID,175,VALID,0.658203,
2001-04-18, 02:49:00,VALID,916.122,VALID,0,VALID,99.2208,VALID,-0.0339617,VALID,18.5585,VALID,186,VALID,0.625601,
2001-04-18, 02:50:00,VALID,916.117,VALID,0,VALID,99.2182,VALID,-0.0679233,VALID,18.5816,VALID,193,VALID,0.677455,
2001-04-18, 02:51:00,VALID,916.104,VALID,0,VALID,99.2437,VALID,-0.0339617,VALID,18.5972,VALID,185,VALID,0.771959,
2001-04-18, 02:52:00,VALID,916.089,VALID,0,VALID,99.2131,VALID,-0.0169808,VALID,18.6203,VALID,177,VALID,0.455423,
2001-04-18, 02:53:00,VALID,916.086,VALID,0,VALID,99.2042,VALID,-0.0169808,VALID,18.6109,VALID,160,VALID,0.592483,
2001-04-18, 02:54:00,VALID,916.08,VALID,0,VALID,99.1788,VALID,-0.0679233,VALID,18.5947,VALID,162,VALID,0.505345,
2001-04-18, 02:55:00,VALID,916.088,VALID,0,VALID,99.1902,VALID,-0.0339617,VALID,18.5942,VALID,173,VALID,0.768709,
2001-04-18, 02:56:00,VALID,916.089,VALID,0,VALID,99.1902,VALID,-0.0339617,VALID,18.6238,VALID,181,VALID,0.658482,
2001-04-18, 02:57:00,VALID,916.096,VALID,0,VALID,99.1699,VALID,-0.0169808,VALID,18.6169,VALID,176,VALID,0.313978,
2001-04-18, 02:58:00,VALID,916.101,VALID,0,VALID,99.1305,VALID,-0.0339617,VALID,18.6007,VALID,179,VALID,0.289292,
2001-04-18, 02:59:00,VALID,916.104,VALID,0,VALID,99.1012,VALID,-0.0509425,VALID,18.5649,VALID,179,VALID,0.16913,
2001-04-18, 03:00:00,VALID,916.097,VALID,0,VALID,99.0567,VALID,-0.0169808,VALID,18.5396,VALID,179,VALID,0,
2001-04-18, 03:01:00,VALID,916.081,VALID,0,VALID,99.0249,VALID,-0.101885,VALID,18.4914,VALID,179,VALID,0,
2001-04-18, 03:02:00,VALID,916.064,VALID,0,VALID,99.1076,VALID,-0.0849042,VALID,18.4941,VALID,179,VALID,0.336607,
2001-04-18, 03:03:00,VALID,916.041,VALID,0,VALID,99.161,VALID,-0.0339617,VALID,18.5133,VALID,179,VALID,0.609164,
2001-04-18, 03:04:00,VALID,916.02,VALID,0,VALID,99.1457,VALID,0,VALID,18.5299,VALID,179,VALID,0.674403,
2001-04-18, 03:05:00,VALID,915.997,VALID,0,VALID,99.1775,VALID,-0.0169808,VALID,18.5329,VALID,187,VALID,0.860642,
2001-04-18, 03:06:00,VALID,915.974,VALID,0,VALID,99.1699,VALID,-0.0339617,VALID,18.5359,VALID,184,VALID,0.63384,
2001-04-18, 03:07:00,VALID,915.974,VALID,0,VALID,99.1381,VALID,0,VALID,18.5232,VALID,184,VALID,0.5,
2001-04-18, 03:08:00,VALID,915.972,VALID,0,VALID,99.0809,VALID,-0.0339617,VALID,18.4881,VALID,170,VALID,0.481696,
2001-04-18, 03:09:00,VALID,915.961,VALID,0,VALID,99.0529,VALID,0,VALID,18.4362,VALID,162,VALID,0.708615,
2001-04-18, 03:10:00,VALID,915.959,VALID,0,VALID,99.0911,VALID,-0.0339617,VALID,18.4134,VALID,164,VALID,0.648897,
2001-04-18, 03:11:00,VALID,915.938,VALID,0,VALID,99.1267,VALID,-0.0679233,VALID,18.4134,VALID,159,VALID,0.868243,
2001-04-18, 03:12:00,VALID,915.924,VALID,0,VALID,99.2055,VALID,-0.0339617,VALID,18.4489,VALID,163,VALID,0.821045,
2001-04-18, 03:13:00,VALID,915.922,VALID,0,VALID,99.1991,VALID,-0.0509425,VALID,18.472,VALID,163,VALID,0.65605,
2001-04-18, 03:14:00,VALID,915.91,VALID,0,VALID,99.2106,VALID,-0.0509425,VALID,18.4849,VALID,168,VALID,0.497991,
2001-04-18, 03:15:00,VALID,915.89,VALID,0,VALID,99.2131,VALID,-0.0339617,VALID,18.4844,VALID,170,VALID,0.449747,
2001-04-18, 03:16:00,VALID,915.877,VALID,0,VALID,99.1902,VALID,-0.0339617,VALID,18.4812,VALID,168,VALID,0.424862,
2001-04-18, 03:17:00,VALID,915.848,VALID,0,VALID,99.1648,VALID,-0.0509425,VALID,18.4718,VALID,149,VALID,0.48163,
2001-04-18, 03:18:00,VALID,915.84,VALID,0,VALID,99.1686,VALID,-0.0169808,VALID,18.4718,VALID,149,VALID,0.495271,
2001-04-18, 03:19:00,VALID,915.824,VALID,0,VALID,99.0758,VALID,-0.0339617,VALID,18.4007,VALID,139,VALID,0.609375,
2001-04-18, 03:20:00,VALID,915.793,VALID,0,VALID,98.997,VALID,-0.0339617,VALID,18.3105,VALID,125,VALID,0.740179,
2001-04-18, 03:21:00,VALID,915.792,VALID,0,VALID,98.9703,VALID,0,VALID,18.2616,VALID,123,VALID,0.475718,
2001-04-18, 03:22:00,VALID,915.796,VALID,0,VALID,99.0249,VALID,-0.0339617,VALID,18.2291,VALID,132,VALID,0.627757,
2001-04-18, 03:23:00,VALID,915.779,VALID,0,VALID,99.1152,VALID,0.0509425,VALID,18.2768,VALID,125,VALID,0.563978,
2001-04-18, 03:24:00,VALID,915.79,VALID,0,VALID,99.1546,VALID,0.0339617,VALID,18.3022,VALID,133,VALID,0.619385,
2001-04-18, 03:25:00,VALID,915.798,VALID,0,VALID,99.1813,VALID,0.0169808,VALID,18.3352,VALID,143,VALID,0.497796,
2001-04-18, 03:26:00,VALID,915.803,VALID,0,VALID,99.1432,VALID,0,VALID,18.3287,VALID,150,VALID,0.399777,
2001-04-18, 03:27:00,VALID,915.81,VALID,0,VALID,99.1457,VALID,0.0339617,VALID,18.3188,VALID,152,VALID,0.51288,
2001-04-18, 03:28:00,VALID,915.811,VALID,0,VALID,99.1788,VALID,0,VALID,18.3089,VALID,161,VALID,0.504136,
2001-04-18, 03:29:00,VALID,915.809,VALID,0,VALID,99.1826,VALID,0,VALID,18.325,VALID,201,VALID,0.570524,
2001-04-18, 03:30:00,VALID,915.815,VALID,0,VALID,99.1572,VALID,0.0169808,VALID,18.3218,VALID,218,VALID,0.973479,
2001-04-18, 03:31:00,VALID,915.812,VALID,0,VALID,99.1966,VALID,0,VALID,18.3193,VALID,214,VALID,0.849918,